Location: Chippewa Lake
(41.0698°N, 81.9010°W)
Time: 22:20:05
(UTC+00:00)

Spot 2 Rocket - Pass Details

Date: 03 October 2021
Orbit: 758 x 771 km, 98.5° (Epoch: 21 October)

Event Time Altitude Azimuth Distance (km) Brightness Sun altitude
Exits shadow 01:57:15 10° 13° (NNE) 2,278 6.0 -32.0°
Drops below altitude 10° 01:57:22 10° 12° (NNE) 2,316 6.1 -32.1°
Sets 01:59:59 0° 360° (N) 3,230 7.1 -32.5°
